Address 0x1f9b0e23043f0fef426b04aff1e610fa07dbeab1

 
Ad
Ad
Txn Hash
Block
From
To
Value [Txn Fee]
0x31421276181794d27b2f7ebcaec9a27d89dcd635babbf793322ac98affcd8b6e64987812021-04-12 10:44:0414 hrs 59 mins ago0x1f9b0e23043f0fef426b04aff1e610fa07dbeab1OUT0x3dc40486479404644624708da3e21db2b2d87dbc3 BNB0.000105
0xcdf0967a6961e7c83705ce23447fa1b9339678f916ab2456df4271a25bd9d4c764986192021-04-12 10:35:5815 hrs 7 mins ago0x1f9b0e23043f0fef426b04aff1e610fa07dbeab1OUT PancakeSwap: Main Staking Contract0 BNB0.000288605
0x4a821f512727b00cbabbc3bc94bd0453dfb6d710229be0621ca53dc32d3ec63764985942021-04-12 10:34:4315 hrs 9 mins ago0x1f9b0e23043f0fef426b04aff1e610fa07dbeab1OUT PancakeSwap: Main Staking Contract0 BNB0.0005382
0xb7bb4ec52b9c104a9f35e3b535cb164de08fcfe132c424a9a8ec5e272f93cd6c64985752021-04-12 10:33:4615 hrs 10 mins ago0x1f9b0e23043f0fef426b04aff1e610fa07dbeab1OUT PancakeSwap: CAKE Token0 BNB0.00014715
0x7822a273c0a4288fdafcee6b0314487cbe51895481c94e7c48f264e259ca8d7264985482021-04-12 10:32:2515 hrs 11 mins ago0x1f9b0e23043f0fef426b04aff1e610fa07dbeab1OUT PancakeSwap: Router0 BNB0.00086831
0x86517fc0dea1045399d9543f74e6da3aa96b4a778a4950343ee542519a898a5f64984812021-04-12 10:29:0415 hrs 14 mins ago0x1f9b0e23043f0fef426b04aff1e610fa07dbeab1OUT PancakeSwap: Main Staking Contract0 BNB0.00053814
0x75c48472a63f994da81bf3c83a5ccd088ac9c28b71e059323317c7a95bc474f064984732021-04-12 10:28:4015 hrs 15 mins ago0x1f9b0e23043f0fef426b04aff1e610fa07dbeab1OUT PancakeSwap: CAKE Token0 BNB0.00012615
0x9d7caf3b492d3b97f62514c395faffe2c3c361e6f5eb15c124540f0f2e6491a964984552021-04-12 10:27:4615 hrs 16 mins ago0x1f9b0e23043f0fef426b04aff1e610fa07dbeab1OUT PancakeSwap: Router0 BNB0.001261955
0xec613a616f835b40513cf42717b21a608d466161e1a73463c174d670bd92b8fd64984282021-04-12 10:26:2515 hrs 17 mins ago0x1f9b0e23043f0fef426b04aff1e610fa07dbeab1OUT PancakeSwap: Main Staking Contract0 BNB0.000601325
0x036d21ae34c62074e3af049ff79199a8ecb7dda7f54829fb8ca55853bf5ecde864983852021-04-12 10:24:1615 hrs 19 mins ago0x1f9b0e23043f0fef426b04aff1e610fa07dbeab1OUT PancakeSwap: Main Staking Contract0 BNB0.000556645
0x11daddfa424baab546a03a4b737cf12100f1c8f053e4ddad892fdde64cea604a64864662021-04-12 0:27:501 day 1 hr ago0x1f9b0e23043f0fef426b04aff1e610fa07dbeab1OUT PancakeSwap: CAKE Token0 BNB0.00014715
0xa6ec6f65443930bdf4c5393133c2faa129209b8bd0c7a861982f3105a1b2bfd564407792021-04-10 10:19:402 days 15 hrs ago0x1f9b0e23043f0fef426b04aff1e610fa07dbeab1OUT PancakeSwap: Main Staking Contract0 BNB0.000641355
0x357c3014382627b12703b6f622d8ddbd57a375ee836b97b0007f9ab6041c088664407562021-04-10 10:18:312 days 15 hrs ago0x1f9b0e23043f0fef426b04aff1e610fa07dbeab1OUT PancakeSwap: Router3.1 BNB0.000936375
0x98a154a97bef258cc01ed11fd66b243a61154d8c5848a75bbf48130778245f2c64407312021-04-10 10:17:162 days 15 hrs ago0x1f9b0e23043f0fef426b04aff1e610fa07dbeab1OUT PancakeSwap: Main Staking Contract0 BNB0.000497465
0xde678012829510f612f9ac033c75d14c483eb8ff26e57909052d0bd40119229364406942021-04-10 10:15:252 days 15 hrs ago0x1f9b0e23043f0fef426b04aff1e610fa07dbeab1OUT PancakeSwap: Router0 BNB0.000957795
0xab88e86bb4e91c530f7b7e9453bab91aa416d45fbb923a846e6d08e8c1988f4e64406582021-04-10 10:13:372 days 15 hrs ago0x1f9b0e23043f0fef426b04aff1e610fa07dbeab1OUT PancakeSwap: Router0 BNB0.00058551
0xa2903b9cb2f268f6704b76fb33f545281488f867d19766e2ad22538873fb9fe764406312021-04-10 10:12:162 days 15 hrs ago0x1f9b0e23043f0fef426b04aff1e610fa07dbeab1OUT PancakeSwap: Main Staking Contract0 BNB0.000747845
0x4d808b867f618d8ad2d943a35cddee92ceeaa0d27cc8f1ef12e2c17fdac7058464304342021-04-10 1:42:243 days 1 min ago0x1f9b0e23043f0fef426b04aff1e610fa07dbeab1OUT PancakeSwap: Router0 BNB0.001071465
0xf83f8be4b3d20ceb36f0a624df0a4bab398f0440e5ed3a7b68fcfbeadb94d11b64304232021-04-10 1:41:513 days 2 mins ago0x1f9b0e23043f0fef426b04aff1e610fa07dbeab1OUT 0xed28a457a5a76596ac48d87c0f577020f6ea1c4c0 BNB0.00024095
0xe754c05dd135762d2800371dc9d6a2fee416f5ff0af424b8827a729a38c9a61464303562021-04-10 1:38:303 days 5 mins ago0x1f9b0e23043f0fef426b04aff1e610fa07dbeab1OUT PancakeSwap: Main Staking Contract0 BNB0.0005382
0xf9a308bd10196ae014821e35612fc30a712845b83fc4cc097a2ff1cc9402617664303412021-04-10 1:37:453 days 6 mins ago0x1f9b0e23043f0fef426b04aff1e610fa07dbeab1OUT PancakeSwap: Main Staking Contract0 BNB0.00078858
0xb7780d90fcc8560879c3b45bfabbf424afb66b9509bb24c3d5121bc1d903d90b64303082021-04-10 1:36:063 days 7 mins ago0x1f9b0e23043f0fef426b04aff1e610fa07dbeab1OUT PancakeSwap: Router1.55 BNB0.00063011
0x622200369e81bc0a1b4bcd44aaa2e76654159db107929dfc436299c80a6f302e64301872021-04-10 1:30:033 days 13 mins agoBinance: Hot Wallet IN 0x1f9b0e23043f0fef426b04aff1e610fa07dbeab11.49953971 BNB0.000126
0xb63ef749646b5cfa8b53ccf0bbe565c5851bb7e5c1e02babb7fc8eef80f9cbfe64270962021-04-09 22:55:303 days 2 hrs ago0x1f9b0e23043f0fef426b04aff1e610fa07dbeab1OUT 0x9096625bc0d36f5eda6d44e511641667d89c28f40 BNB0.00052892
0xd43ca958829011386c923be1fd6f118608355b523ac772565e841310ca1f999b64270862021-04-09 22:55:003 days 2 hrs ago0x1f9b0e23043f0fef426b04aff1e610fa07dbeab1OUT 0x9096625bc0d36f5eda6d44e511641667d89c28f40 BNB0.000442065
[ Download CSV Export 
Latest 10 internal transactions
Parent Txn Hash Block From To Value
0x7822a273c0a4288fdafcee6b0314487cbe51895481c94e7c48f264e259ca8d7264985482021-04-12 10:32:2515 hrs 11 mins ago PancakeSwap: Router0x1f9b0e23043f0fef426b04aff1e610fa07dbeab12.96708148209706748 BNB
0xde678012829510f612f9ac033c75d14c483eb8ff26e57909052d0bd40119229364406942021-04-10 10:15:252 days 15 hrs ago PancakeSwap: Router0x1f9b0e23043f0fef426b04aff1e610fa07dbeab11.100194670710582352 BNB
0xab88e86bb4e91c530f7b7e9453bab91aa416d45fbb923a846e6d08e8c1988f4e64406582021-04-10 10:13:372 days 15 hrs ago PancakeSwap: Router0x1f9b0e23043f0fef426b04aff1e610fa07dbeab12.052595834619028035 BNB
0xf6a878422d883ae7fb2348789397cf52977eff86f96b20ab6fc9e9c5e2e3ec8663945512021-04-08 19:33:094 days 6 hrs ago PancakeSwap: Router0x1f9b0e23043f0fef426b04aff1e610fa07dbeab19.157740361877641637 BNB
0xa45fddd6f4df93e05df812e82ecaadff8e3bb6d7293d023fb89e76b0f4abb18763168932021-04-06 0:44:487 days 59 mins ago PancakeSwap: Router0x1f9b0e23043f0fef426b04aff1e610fa07dbeab10.000014018930849315 BNB
0x44493b3ef2ccd619d1f7c92269150254287712e93e12bdd65991b5ae50163aee62760042021-04-04 13:49:288 days 11 hrs ago PancakeSwap: Router0x1f9b0e23043f0fef426b04aff1e610fa07dbeab10.000038571307751826 BNB
0xd0c6c4bfcea3c1c61acf51341246b519361aef9003fbd9e8a3e9eb109fac680a62478622021-04-03 14:09:409 days 11 hrs ago PancakeSwap: Router0x1f9b0e23043f0fef426b04aff1e610fa07dbeab10.000006845457825864 BNB
0x1a929a11150bed25f544f687bb1331107fff7861ed6b8ea0b4f340d1104040f262454212021-04-03 12:07:349 days 13 hrs ago PancakeSwap: Router0x1f9b0e23043f0fef426b04aff1e610fa07dbeab10.000027708724372122 BNB
0xed671f8c14212d32f8bd951045eb9316ec1f9c475431df8a9efc5f8562fb82c662454072021-04-03 12:06:529 days 13 hrs ago PancakeSwap: Router0x1f9b0e23043f0fef426b04aff1e610fa07dbeab11.092204191123462246 BNB
0x3fe249332341aec4e004c3e58f153b5f1f60c46105887fb37105614d53bb8b6562033572021-04-02 0:46:3411 days 57 mins ago PancakeSwap: Router0x1f9b0e23043f0fef426b04aff1e610fa07dbeab10.000007981475934068 BNB
[ Download CSV Export 
Loading

Contract Name:
0 BNB

Compiler Version
0

Optimization Enabled:
0 BNB

Other Settings:
-NA-
Block Transaction Gas Used Reward
Age Block Fee Address BC Fee Address Voting Power Jailed Incoming
Block Uncle Number Difficulty Gas Used Reward
Loading
Loading
Make sure to use the "Vote Down" button for any spammy posts, and the "Vote Up" for interesting conversations.